Regional Weather Roundup
Issued by NWS

Home | Current Version | Previous Version | Text Only | Print | Product List | Glossary Off
Versions: 1 2 3 4 5 6 7 8 9 10 11 12 13 14 15 16 17 18 19 20 21 22 23 24 25 26 27 28 29 30 31 32 33 34 35 36 37 38 39 40 41 42 43 44 45 46 47 48 49 50

000
ASUS43 KLMK 220202
RWRKY
KENTUCKY REGIONAL WEATHER ROUNDUP
NATIONAL WEATHER SERVICE LOUISVILLE KY
1000 PM EDT TUE MAR 21 2017

NOTE "FAIR" INDICATES FEW OR NO CLOUDS BELOW 12,000 FEET
WITH NO SIGNIFICANT WEATHER AND/OR OBSTRUCTIONS TO VISIBILITY.

KYZ001>023-026-027-061>063-070>075-220300-
WESTERN AND SOUTH CENTRAL KENTUCKY

CITY           SKY/WX    TMP DP  RH WIND       PRES   REMARKS
PADUCAH        CLOUDY    55  39  54 N7        30.17R
HENDERSON      CLOUDY    55  32  41 N9        30.16R
OWENSBORO      CLOUDY    56  31  38 N13G20    30.15R
HOPKINSVILLE   CLEAR     56  47  71 NW5       30.11R
BOWLING GREEN  PTCLDY    60  43  53 N5        30.10R
GLASGOW        NOT AVBL
$$

KYZ024-025-028>034-038-045-046-053-220300-
NORTH CENTRAL KENTUCKY

CITY           SKY/WX    TMP DP  RH WIND       PRES   REMARKS
LOUISVILLE/SDF MOCLDY    55  31  39 N14       30.14R
LOUISVILLE/LOU PTCLDY    55  33  43 N6        30.15R
FORT KNOX      CLOUDY    56  32  39 N14G20    30.11R
$$

KYZ035>037-039>044-047>052-055>060-089>105-220300-
NORTHEAST KENTUCKY

CITY           SKY/WX    TMP DP  RH WIND       PRES   REMARKS
LEXINGTON      PTCLDY    55  38  52 N14G22    30.11R
COVINGTON      CLOUDY    48  36  63 N9        30.16R
FRANKFORT      PTCLDY    56  31  38 N9        30.12R
$$

KYZ054-064>069-076>088-106>120-220300-
SOUTHEAST KENTUCKY

CITY           SKY/WX    TMP DP  RH WIND       PRES   REMARKS
JACKSON        PTCLDY    53  43  68 N5        30.10R
LONDON         MOCLDY    55  39  54 N8        30.11R
SOMERSET       PTCLDY    54  41  62 NE12      30.13R
MIDDLESBORO    CLOUDY    61  48  62 N14G20    30.06R
MONTICELLO     MOCLDY    56  45  66 N15       30.13R
$$





USA.gov is the U.S. government's official web portal to all federal, state and local government web resources and services.